• Join FlightAware (Why Join?)
  • Login
  • US Flag 
03:50AM EDT


 

Airport Tracker/Info


-or-


 

Live Flight TrackerFlight Track Log ✈ DAL4165 ✈ 30-Apr-2013 ✈ KATL - KOKC

Flight Track Log - Related Links

Times and Time Zones

All times are in EDT time to prevent confusion due to time zone crossing. See the DAL4165 flight status page for this flight to view local times or setup timezone preferences in your user account.

Time Position Orientation Groundspeed Altitude Reporting Facility
EDT Latitude Longitude Course Direction KTS MPH feet Rate Location/Type
04:33PM 33.6500 -84.3833 252° West 160 184 2,400  Level Atlanta TRACON
04:34PM 33.6667 -84.3167 73° East 247 284 3,600 1,920 Climbing Atlanta TRACON
04:35PM 33.7333 -84.2833 23° Northeast 275 316 6,300 2,340 Climbing Atlanta TRACON
04:36PM 33.8001 -84.3656 270° West  Level FlightAware Approximate
04:37PM 33.8001 -84.5040 270° West  Level FlightAware Approximate
04:37PM 33.8125 -84.3889 312° West 267 307 10,600  Level Atlanta Center
04:38PM 33.7933 -84.6410 252° West  Level FlightAware Approximate
04:38PM 33.8081 -84.5039 267° West 312 359 11,900  Level Atlanta Center
04:39PM 33.7571 -84.7722 252° West  Level FlightAware Approximate
04:40PM 33.7692 -84.7536 259° West 381 438 15,300  Level Atlanta Center
04:42PM 33.7279 -84.8949 251° West  Level FlightAware Approximate
04:42PM 33.6983 -85.0350 251° West 422 486 18,300  Level Atlanta Center
04:43PM 33.6639 -85.1744 254° West 432 497 19,800 1,500 Climbing Atlanta Center
04:44PM 33.6519 -85.3189 264° West 437 503 21,400 1,440 Climbing Atlanta Center
04:45PM 33.6525 -85.4689 270° West 443 510 22,700 840 Climbing Atlanta Center
04:46PM 33.6569 -85.6061 272° West 454 522 23,100 660 Climbing Atlanta Center
04:47PM 33.6569 -85.7608 270° West 465 535 24,100 1,020 Climbing Atlanta Center
04:48PM 33.6586 -85.9281 271° West 465 535 25,200 900 Climbing Atlanta Center
04:49PM 33.6644 -86.0856 273° West 465 535 26,000 360 Climbing Atlanta Center
04:50PM 33.6639 -86.2428 270° West 470 541 26,000  Level Atlanta Center
04:51PM 33.6653 -86.3975 271° West 475 547 26,000  Level Atlanta Center
04:52PM 33.6664 -86.5522 271° West 475 547 26,000  Level Atlanta Center
04:53PM 33.6694 -86.7094 271° West 475 547 26,000  Level Atlanta Center
04:54PM 33.6700 -86.8644 270° West 475 547 26,000  Level Atlanta Center
04:56PM 33.7200 -87.1506 282° West 467 537 26,000  Level Memphis Center
04:57PM 33.7531 -87.3042 285° West 472 543 26,000  Level Memphis Center
04:58PM 33.7861 -87.4581 285° West 472 543 26,000  Level Memphis Center
04:59PM 33.8183 -87.5944 286° West 472 543 26,000 180 Level Memphis Center
05:00PM 33.8511 -87.7508 284° West 477 549 26,400 480 Climbing Memphis Center
05:01PM 33.8833 -87.9050 284° West 477 549 27,000 300 Climbing Memphis Center
05:02PM 33.9158 -88.0719 283° West 477 549 27,000  Level Memphis Center
05:03PM 33.9458 -88.2314 283° West 477 549 27,000  Level Memphis Center
05:04PM 33.9775 -88.3858 284° West 477 549 27,000  Level Memphis Center
05:05PM 34.0092 -88.5431 284° West 477 549 27,000  Level Memphis Center
05:06PM 34.0406 -88.6928 284° West 477 549 27,000  Level Memphis Center
05:07PM 34.0694 -88.8450 283° West 472 543 27,000  Level Memphis Center
05:08PM 34.1006 -89.0000 284° West 467 537 27,000  Level Memphis Center
05:09PM 34.1292 -89.1528 283° West 472 543 27,000  Level Memphis Center
05:10PM 34.1556 -89.2903 283° West 472 543 27,000  Level Memphis Center
05:11PM 34.1861 -89.4458 283° West 472 543 27,000  Level Memphis Center
05:12PM 34.2142 -89.5986 283° West 464 534 27,000  Level Memphis Center
05:13PM 34.2422 -89.7517 283° West 471 542 27,000 -180 Level Memphis Center
05:14PM 34.2719 -89.9097 283° West 477 549 26,700 -540 Descending Memphis Center
05:15PM 34.3039 -90.0831 283° West 477 549 26,000 -360 Descending Memphis Center
05:16PM 34.3333 -90.2389 283° West 482 555 26,000  Level Memphis Center
05:17PM 34.3625 -90.3950 283° West 482 555 26,000  Level Memphis Center
05:18PM 34.3917 -90.5533 283° West 488 562 26,000  Level Memphis Center
05:19PM 34.4228 -90.7122 283° West 488 562 26,000  Level Memphis Center
05:20PM 34.4492 -90.8683 282° West 488 562 26,000  Level Memphis Center
05:21PM 34.4778 -91.0272 282° West 488 562 26,000  Level Memphis Center
05:22PM 34.5039 -91.1711 282° West 488 562 26,000  Level Memphis Center
05:23PM 34.5319 -91.3303 282° West 482 555 26,000  Level Memphis Center
05:24PM 34.5600 -91.4894 282° West 482 555 26,000  Level Memphis Center
05:25PM 34.5875 -91.6489 282° West 482 555 26,000  Level Memphis Center
05:26PM 34.6150 -91.8056 282° West 487 560 26,000  Level Memphis Center
05:27PM 34.6422 -91.9778 281° West 487 560 26,000  Level Memphis Center
05:28PM 34.6714 -92.1400 282° West 487 560 26,000  Level Memphis Center
05:29PM 34.6939 -92.3019 280° West 487 560 26,000  Level Memphis Center
05:30PM 34.7183 -92.4669 280° West 487 560 26,000  Level Memphis Center
05:31PM 34.7425 -92.6317 280° West 492 566 26,000  Level Memphis Center
05:32PM 34.7667 -92.7967 280° West 497 572 26,000  Level Memphis Center
05:33PM 34.7883 -92.9617 279° West 497 572 26,000  Level Memphis Center
05:34PM 34.8100 -93.1217 279° West 497 572 26,000  Level Memphis Center
05:35PM 34.8311 -93.2867 279° West 497 572 26,000  Level Memphis Center
05:36PM 34.8542 -93.4519 280° West 497 572 26,000  Level Memphis Center
05:37PM 34.8772 -93.6125 280° West 492 566 26,000  Level Memphis Center
05:38PM 34.8961 -93.7725 278° West 487 560 26,000  Level Memphis Center
05:39PM 34.9228 -93.9358 281° West 487 560 26,000  Level Memphis Center
05:40PM 34.9408 -94.0986 278° West 487 560 26,000  Level Memphis Center
05:41PM 34.9628 -94.2644 279° West 487 560 26,000  Level Memphis Center
05:42PM 34.9828 -94.4225 279° West 487 560 26,000  Level Memphis Center
05:43PM 35.0025 -94.5856 278° West 487 560 26,000  Level Memphis Center
05:44PM 35.0156 -94.6808 280° West 485 558 26,000  Level Fort Worth Center
05:45PM 35.0358 -94.8397 279° West 518 596 26,000  Level Fort Worth Center
05:46PM 35.0597 -95.0014 280° West 500 575 26,000  Level Fort Worth Center
05:47PM 35.0817 -95.1631 279° West 495 570 26,000 -180 Level Fort Worth Center
05:48PM 35.1031 -95.3200 280° West 490 564 25,700 -660 Descending Fort Worth Center
05:49PM 35.1225 -95.4844 278° West 484 557 24,700 -900 Descending Fort Worth Center
05:50PM 35.1436 -95.6439 279° West 484 557 24,000 -360 Descending Fort Worth Center
05:51PM 35.1603 -95.7986 278° West 479 551 24,000  Level Fort Worth Center
05:52PM 35.1767 -95.9531 277° West 474 545 24,000  Level Fort Worth Center
05:53PM 35.1950 -96.1103 278° West 469 540 24,000 -1,080 Level Fort Worth Center
05:54PM 35.2111 -96.2625 277° West 463 533 21,900 -2,340 Descending Fort Worth Center
05:55PM 35.2292 -96.4097 279° West 458 527 19,400 -2,700 Descending Fort Worth Center
05:56PM 35.2489 -96.5569 279° West 428 493 16,600 -2,700 Descending Fort Worth Center
05:56PM 35.2536 -96.6203 275° West 416 479 15,400 -2,280 Descending Fort Worth Center
05:57PM 35.2603 -96.6914 277° West 434 499 14,300 -2,220 Descending Fort Worth Center
05:57PM 35.2689 -96.7550 279° West 398 458 13,200 -2,040 Descending Fort Worth Center
05:58PM 35.2736 -96.8236 275° West 412 474 12,300 -1,860 Descending Fort Worth Center
05:58PM 35.2800 -96.8769 278° West 390 449 11,500 -1,320 Descending Fort Worth Center
05:59PM 35.2886 -96.9533 278° West 401 461 11,000 -600 Descending Fort Worth Center
05:59PM 35.2931 -96.9964 277° West 384 442 11,000  Level Fort Worth Center
06:00PM 35.3014 -97.0803 277° West 390 449 11,000  Level Fort Worth Center
06:00PM 35.3100 -97.1642 277° West 379 436 11,000 -240 Level Fort Worth Center
06:01PM 35.3164 -97.1947 284° West 377 434 10,800 -1,320 Descending Fort Worth Center
06:01PM 35.3353 -97.2661 288° West 299 344 9,700 -1,980 Descending Fort Worth Center
06:02PM 35.3750 -97.3347 305° West 284 327 7,900 -1,980 Descending Fort Worth Center
06:03PM 35.3894 -97.3628 302° West 314 361 7,100 -2,400 Descending Fort Worth Center
06:03PM 35.4250 -97.4186 308° West 300 345 5,500 -2,520 Descending Fort Worth Center
06:04PM 35.4481 -97.4517 311° West 309 356 4,600 -2,340 Descending Fort Worth Center
06:04PM 35.4625 -97.4900 295° West 282 325 3,400 -3,180 Descending Fort Worth Center